TimeEST,TemperatureF,Dew PointF,Humidity,Sea Level PressureIn,VisibilityMPH,Wind Direction,Wind SpeedMPH,Gust SpeedMPH,PrecipitationIn,Events,Conditions,WindDirDegrees,DateUTC
1:52 AM,10.0,6.1,84,29.99,8.0,Calm,Calm,-,N/A,,Overcast,0,2013-01-04 06:52:00
2:52 AM,9.0,6.1,88,29.98,8.0,Calm,Calm,-,N/A,,Scattered Clouds,0,2013-01-04 07:52:00
3:52 AM,6.1,3.0,87,29.97,8.0,Calm,Calm,-,N/A,,Scattered Clouds,0,2013-01-04 08:52:00
4:52 AM,6.1,3.0,87,29.97,7.0,Calm,Calm,-,N/A,,Mostly Cloudy,0,2013-01-04 09:52:00
5:52 AM,10.0,7.0,87,29.97,8.0,Calm,Calm,-,N/A,,Overcast,0,2013-01-04 10:52:00
6:52 AM,10.9,7.0,84,29.97,9.0,Calm,Calm,-,N/A,,Overcast,0,2013-01-04 11:52:00
7:52 AM,25.0,18.0,75,29.96,10.0,SSW,8.1,-,N/A,,Overcast,210,2013-01-04 12:52:00
8:52 AM,27.0,18.0,69,29.96,10.0,South,9.2,-,N/A,,Scattered Clouds,190,2013-01-04 13:52:00
9:52 AM,28.9,18.0,64,29.95,10.0,WSW,9.2,-,N/A,,Partly Cloudy,240,2013-01-04 14:52:00
10:52 AM,33.1,18.0,54,29.92,10.0,WSW,6.9,-,N/A,,Clear,240,2013-01-04 15:52:00
11:52 AM,34.0,19.0,54,29.88,10.0,SW,12.7,21.9,N/A,,Clear,230,2013-01-04 16:52:00
12:52 PM,35.1,19.0,52,29.85,10.0,SW,13.8,23.0,N/A,,Partly Cloudy,220,2013-01-04 17:52:00
1:52 PM,36.0,19.0,50,29.83,10.0,SW,13.8,18.4,N/A,,Clear,220,2013-01-04 18:52:00
2:52 PM,35.1,19.9,54,29.83,10.0,SSW,12.7,-,N/A,,Clear,210,2013-01-04 19:52:00
3:52 PM,35.1,19.0,52,29.83,10.0,SW,4.6,-,N/A,,Clear,230,2013-01-04 20:52:00
4:52 PM,35.1,19.0,52,29.83,10.0,WSW,9.2,-,N/A,,Clear,240,2013-01-04 21:52:00
5:52 PM,30.0,18.0,61,29.85,10.0,South,4.6,-,N/A,,Partly Cloudy,190,2013-01-04 22:52:00
6:52 PM,27.0,18.0,69,29.87,10.0,SSW,4.6,-,N/A,,Clear,200,2013-01-04 23:52:00
7:52 PM,30.0,18.0,61,29.86,10.0,WSW,4.6,-,N/A,,Clear,250,2013-01-05 00:52:00
8:52 PM,28.9,17.1,61,29.86,10.0,Calm,Calm,-,N/A,,Scattered Clouds,0,2013-01-05 01:52:00
9:52 PM,30.9,18.0,59,29.86,10.0,Variable,3.5,-,N/A,,Overcast,0,2013-01-05 02:52:00
10:52 PM,33.1,17.1,52,29.86,10.0,West,8.1,-,N/A,,Overcast,280,2013-01-05 03:52:00
11:52 PM,33.1,18.0,54,29.86,10.0,West,13.8,21.9,N/A,,Overcast,280,2013-01-05 04:52:00